DTUSAT 1 27842U 03031C 10251.77195871 .00000030 00000-0 33826-4 0 9229 2 27842 98.7028 260.3907 0008471 272.0835 87.9371 14.21052281373052 CUTE-1 (CO-55) 1 27844U 03031E 10251.55054454 .00000057 00000-0 46762-4 0 9310 2 27844 98.7115 259.3347 0009201 295.3802 64.6424 14.20727834372929 QUAKESAT 1 27845U 03031F 10252.17670169 .00000095 00000-0 64882-4 0 9143 2 27845 98.7196 259.4782 0008472 313.5530 46.4945 14.20381750372900 AAU CUBESAT 1 27846U 03031G 10251.98291104 .00000044 00000-0 40658-4 0 8283 2 27846 98.7029 260.5913 0008719 271.8255 88.1931 14.21050548373086 CANX-1 1 27847U 03031H 10251.01213747 .00000047 00000-0 41850-4 0 8474 2 27847 98.7031 259.6181 0008503 272.4883 87.5341 14.21028889372890 CUBESAT XI-IV (CO-57) 1 27848U 03031J 10251.94452368 .00000040 00000-0 38991-4 0 8780 2 27848 98.7157 258.8333 0009140 299.0961 60.9305 14.20519037372939 UWE-1 1 28892U 05043C 10252.19529716 .00000127 00000-0 35926-4 0 7257 2 28892 97.9974 133.0534 0017973 25.2129 334.9939 14.59906985259353 CUBESAT XI-V (CO-58) 1 28895U 05043F 10252.21471993 .00000013 00000-0 12151-4 0 6760 2 28895 98.0016 133.8528 0018349 25.5102 334.7005 14.59928605259241 NCUBE-2 1 28897U 05043H 10252.14785045 .00000120 00000-0 34195-4 0 2419 2 28897 97.9999 133.6803 0017849 26.1167 334.0934 14.60117386251533 CSTB1 1 31122U 07012F 10251.75989368 .00000554 00000-0 13192-3 0 155 2 31122 97.9387 293.1841 0084279 317.1436 42.3203 14.55438374180408 MAST 1 31126U 07012K 10251.65028717 .00000129 00000-0 39763-4 0 9587 2 31126 97.9309 289.3164 0094286 327.3139 32.2238 14.53616879180180 LIBERTAD-1 1 31128U 07012M 10252.55507078 -.00000047 00000-0 00000+0 0 208 2 31128 97.9327 287.3784 0101928 333.3234 26.2774 14.52194789180114 POLYSAT CP3 1 31129U 07012N 10252.06447969 .00000059 00000-0 24372-4 0 6714 2 31129 97.9335 287.1191 0101870 334.4153 25.2019 14.52299843180031 CAPE1 1 31130U 07012P 10252.05811200 .00000138 00000-0 42601-4 0 9781 2 31130 97.9320 286.9477 0102629 334.8430 24.7846 14.52218304179837 POLYSAT CP4 1 31132U 07012Q 10252.05646016 .00000116 00000-0 35770-4 0 9914 2 31132 97.9336 293.1976 0084934 316.2801 43.1681 14.55351940180318 NTS (CANX-6) 1 32784U 08021B 10252.70109366 .00000332 00000-0 49254-4 0 7845 2 32784 97.8904 315.9814 0016111 10.4385 349.7143 14.81243644127968 CUTE-1.7+APD II (CO-65) 1 32785U 08021C 10252.71446169 .00000105 00000-0 20020-4 0 7794 2 32785 97.8893 316.4384 0015408 13.8525 346.3102 14.81710369128002 COMPASS-1 1 32787U 08021E 10252.23253549 .00000558 00000-0 77011-4 0 7717 2 32787 97.8879 315.8031 0016241 15.8199 344.3523 14.81959034127946 AAUSAT-II 1 32788U 08021F 10252.63243592 .00000565 00000-0 77530-4 0 7634 2 32788 97.8886 316.3445 0015368 17.4964 342.6741 14.82107131128013 DELFI-C3 (DO-64) 1 32789U 08021G 10252.22696256 .00001072 00000-0 14060-3 0 7800 2 32789 97.8941 316.5163 0015700 15.8305 344.3407 14.82294042127954 CANX-2 1 32790U 08021H 10252.58991932 .00000023 00000-0 96892-5 0 7686 2 32790 97.8876 316.2111 0015620 15.6914 344.4780 14.81679593127961 SEEDS II (CO-66) 1 32791U 08021J 10252.06445907 -.00000053 00000-0 67015-7 0 7643 2 32791 97.8888 315.6415 0016770 14.9307 345.2361 14.81727501127877 POLYSAT CP6 1 35003U 09028C 10252.78171561 .00011716 00000-0 22871-3 0 3865 2 35003 40.4604 55.4616 0023679 299.8445 60.0044 15.46952030 73814 HAWKSAT 1 1 35004U 09028D 10252.79003011 .00015831 00000-0 29504-3 0 3818 2 35004 40.4573 53.7375 0023437 307.5538 52.3140 15.48106102 73820 AEROCUBE 3 1 35005U 09028E 10252.78495128 .00059242 00000-0 77161-3 0 4415 2 35005 40.4682 45.9656 0021514 328.2077 31.7943 15.57512109 73919 SWISSCUBE 1 35932U 09051B 10252.29900495 .00005233 00000-0 12986-2 0 5644 2 35932 98.3327 349.3697 0006005 291.3332 68.6275 14.52253072 50944 BEESAT 1 35933U 09051C 10252.71525525 .00000173 00000-0 42134-4 0 6176 2 35933 98.3292 349.9299 0005166 315.3696 44.7582 14.52784318 51025 UWE-2 1 35934U 09051D 10252.29357861 .00003310 00000-0 81574-3 0 4888 2 35934 98.3265 349.4048 0006151 311.9286 48.1337 14.52826649 50978 ITUPSAT 1 1 35935U 09051E 10252.50534384 .00001934 00000-0 48744-3 0 3364 2 35935 98.3410 349.7855 0007325 289.1412 70.8904 14.52231785 50974 TISAT-1 1 36799U 10035E 10252.82709509 .00000338 00000-0 51677-4 0 1102 2 36799 98.1411 312.8263 0016631 100.6918 259.6159 14.80160700 8830